Time,TemperatureF,DewpointF,PressureIn,WindDirection,WindDirectionDegrees,WindSpeedMPH,WindSpeedGustMPH,Humidity,HourlyPrecipIn,Conditions,Clouds,dailyrainin,SoftwareType,DateUTC
2013-03-11 00:05:00,45.0,35.0,30.24,South,180,11.0,12.0,67,0.00,,,0.00,TxWx,2013-03-11 04:05:00,
2013-03-11 00:10:00,45.0,35.0,30.24,SSE,157,6.0,11.0,68,0.00,,,0.00,TxWx,2013-03-11 04:10:00,
2013-03-11 00:15:00,45.0,35.0,30.24,SSE,157,6.0,8.0,68,0.00,,,0.00,TxWx,2013-03-11 04:15:00,
2013-03-11 00:20:00,45.0,35.0,30.24,SSE,157,3.0,5.0,68,0.00,,,0.00,TxWx,2013-03-11 04:20:00,
2013-03-11 00:25:00,45.0,35.0,30.24,ESE,112,5.0,5.0,69,0.00,,,0.00,TxWx,2013-03-11 04:25:00,
2013-03-11 00:30:00,45.0,35.0,30.25,SSE,157,7.0,7.0,69,0.00,,,0.00,TxWx,2013-03-11 04:30:00,
2013-03-11 00:35:00,44.0,34.0,30.25,South,180,4.0,6.0,69,0.00,,,0.00,TxWx,2013-03-11 04:35:00,
2013-03-11 00:40:00,44.0,34.0,30.25,SSE,157,5.0,5.0,69,0.00,,,0.00,TxWx,2013-03-11 04:40:00,
2013-03-11 00:45:00,44.0,34.0,30.25,South,180,9.0,12.0,69,0.00,,,0.00,TxWx,2013-03-11 04:45:00,
2013-03-11 00:50:00,44.0,34.0,30.25,South,180,4.0,8.0,69,0.00,,,0.00,TxWx,2013-03-11 04:50:00,
2013-03-11 00:55:00,44.0,35.0,30.26,South,180,16.0,16.0,70,0.00,,,0.00,TxWx,2013-03-11 04:55:00,
2013-03-11 01:00:00,44.0,35.0,30.25,East,90,3.0,3.0,70,0.00,,,0.00,TxWx,2013-03-11 05:00:00,
2013-03-11 01:06:00,43.0,34.0,30.26,SE,135,4.0,4.0,70,0.00,,,0.00,TxWx,2013-03-11 05:06:00,
2013-03-11 01:11:00,43.0,34.0,30.25,ENE,67,3.0,10.0,70,0.00,,,0.00,TxWx,2013-03-11 05:11:00,
2013-03-11 01:16:00,43.0,34.0,30.25,South,180,12.0,14.0,70,0.00,,,0.00,TxWx,2013-03-11 05:16:00,
2013-03-11 01:21:00,43.0,34.0,30.24,ESE,112,9.0,10.0,71,0.00,,,0.00,TxWx,2013-03-11 05:21:00,
2013-03-11 01:22:00,44.0,40.0,30.19,SSE,157,9.0,13.0,85,0.00,,,0.00,TxWx,2013-03-11 05:22:00,
2013-03-11 01:23:00,44.0,40.0,30.19,SE,135,8.0,10.0,85,0.00,,,0.00,TxWx,2013-03-11 05:23:00,
2013-03-11 01:24:00,44.0,40.0,30.19,South,180,7.0,10.0,85,0.00,,,0.00,TxWx,2013-03-11 05:24:00,
2013-03-11 01:25:00,44.0,40.0,30.19,SSW,202,4.0,11.0,85,0.00,,,0.00,TxWx,2013-03-11 05:25:00,
2013-03-11 01:26:00,43.0,34.0,30.23,SSE,157,3.0,5.0,71,0.00,,,0.00,TxWx,2013-03-11 05:26:00,
2013-03-11 01:31:00,43.0,34.0,30.22,ESE,112,7.0,7.0,71,0.00,,,0.00,TxWx,2013-03-11 05:31:00,
2013-03-11 01:32:00,45.0,39.0,30.20,SSE,157,14.0,15.0,84,0.00,,,0.00,TxWx,2013-03-11 05:32:00,
2013-03-11 01:33:00,45.0,40.0,30.20,SSW,202,5.0,7.0,84,0.00,,,0.00,TxWx,2013-03-11 05:33:00,
2013-03-11 01:36:00,42.0,33.0,30.22,SSE,157,10.0,14.0,71,0.00,,,0.00,TxWx,2013-03-11 05:36:00,
2013-03-11 01:41:00,42.0,33.0,30.22,WSW,247,3.0,6.0,71,0.00,,,0.00,TxWx,2013-03-11 05:41:00,
2013-03-11 01:42:00,45.0,40.0,30.19,SE,135,5.0,6.0,84,0.00,,,0.00,TxWx,2013-03-11 05:42:00,
2013-03-11 01:43:00,45.0,40.0,30.19,SE,135,9.0,12.0,83,0.00,,,0.00,TxWx,2013-03-11 05:43:00,
2013-03-11 01:44:00,45.0,40.0,30.19,SSE,157,5.0,8.0,83,0.00,,,0.00,TxWx,2013-03-11 05:44:00,
2013-03-11 01:45:00,45.0,40.0,30.19,ENE,67,6.0,10.0,83,0.00,,,0.00,TxWx,2013-03-11 05:45:00,
2013-03-11 01:46:00,42.0,33.0,30.23,South,180,8.0,10.0,71,0.00,,,0.00,TxWx,2013-03-11 05:46:00,
2013-03-11 01:51:00,42.0,33.0,30.22,SE,135,6.0,8.0,71,0.00,,,0.00,TxWx,2013-03-11 05:51:00,
2013-03-11 01:56:00,42.0,33.0,30.23,South,180,3.0,4.0,71,0.00,,,0.00,TxWx,2013-03-11 05:56:00,
2013-03-11 02:05:00,42.0,33.0,30.22,SE,135,7.0,7.0,71,0.00,,,0.00,TxWx,2013-03-11 06:05:00,
2013-03-11 02:10:00,42.0,33.0,30.22,South,180,6.0,6.0,72,0.00,,,0.00,TxWx,2013-03-11 06:10:00,
2013-03-11 02:17:00,46.0,40.0,30.17,NE,45,3.0,6.0,81,0.00,,,0.00,TxWx,2013-03-11 06:17:00,
2013-03-11 02:18:00,46.0,40.0,30.17,ESE,112,3.0,5.0,81,0.00,,,0.00,TxWx,2013-03-11 06:18:00,
2013-03-11 02:19:00,46.0,40.0,30.17,SSE,157,6.0,10.0,81,0.00,,,0.00,TxWx,2013-03-11 06:19:00,
2013-03-11 02:20:00,42.0,34.0,30.23,South,180,3.0,5.0,72,0.00,,,0.00,TxWx,2013-03-11 06:20:00,
2013-03-11 02:25:00,42.0,34.0,30.23,ESE,112,8.0,8.0,73,0.00,,,0.00,TxWx,2013-03-11 06:25:00,
2013-03-11 02:26:00,46.0,40.0,30.17,SSE,157,10.0,10.0,80,0.00,,,0.00,TxWx,2013-03-11 06:26:00,
2013-03-11 02:27:00,46.0,40.0,30.17,ESE,112,7.0,7.0,80,0.00,,,0.00,TxWx,2013-03-11 06:27:00,
2013-03-11 02:30:00,42.0,34.0,30.22,ESE,112,7.0,9.0,73,0.00,,,0.00,TxWx,2013-03-11 06:30:00,
2013-03-11 02:35:00,42.0,34.0,30.22,SE,135,7.0,9.0,73,0.00,,,0.00,TxWx,2013-03-11 06:35:00,
2013-03-11 02:40:00,41.0,33.0,30.22,SSE,157,4.0,4.0,74,0.00,,,0.00,TxWx,2013-03-11 06:40:00,
2013-03-11 02:41:00,46.0,40.0,30.17,SE,135,6.0,8.0,78,0.00,,,0.00,TxWx,2013-03-11 06:41:00,
2013-03-11 02:42:00,46.0,40.0,30.17,South,180,6.0,11.0,78,0.00,,,0.00,TxWx,2013-03-11 06:42:00,
2013-03-11 02:43:00,46.0,39.0,30.17,SE,135,12.0,14.0,78,0.00,,,0.00,TxWx,2013-03-11 06:43:00,
2013-03-11 02:44:00,46.0,39.0,30.17,SSE,157,8.0,9.0,78,0.00,,,0.00,TxWx,2013-03-11 06:44:00,
2013-03-11 02:45:00,41.0,33.0,30.23,South,180,3.0,5.0,74,0.00,,,0.00,TxWx,2013-03-11 06:45:00,
2013-03-11 02:46:00,46.0,39.0,30.17,South,180,7.0,7.0,78,0.00,,,0.00,TxWx,2013-03-11 06:46:00,
2013-03-11 02:47:00,46.0,39.0,30.17,South,180,16.0,16.0,78,0.00,,,0.00,TxWx,2013-03-11 06:47:00,
2013-03-11 02:48:00,46.0,39.0,30.17,SSE,157,5.0,5.0,78,0.00,,,0.00,TxWx,2013-03-11 06:48:00,
2013-03-11 02:50:00,41.0,33.0,30.23,SSE,157,5.0,6.0,74,0.00,,,0.00,TxWx,2013-03-11 06:50:00,
2013-03-11 02:56:00,41.0,33.0,30.23,ESE,112,5.0,6.0,74,0.00,,,0.00,TxWx,2013-03-11 06:56:00,
2013-03-11 02:57:00,47.0,40.0,30.17,SSE,157,7.0,7.0,77,0.00,,,0.00,TxWx,2013-03-11 06:57:00,
2013-03-11 03:01:00,41.0,34.0,30.23,SSE,157,7.0,8.0,75,0.00,,,0.00,TxWx,2013-03-11 07:01:00,
2013-03-11 03:06:00,41.0,34.0,30.22,East,90,1.0,3.0,75,0.00,,,0.00,TxWx,2013-03-11 07:06:00,
2013-03-11 03:11:00,41.0,34.0,30.22,SSE,157,5.0,5.0,76,0.00,,,0.00,TxWx,2013-03-11 07:11:00,
2013-03-11 03:16:00,41.0,34.0,30.21,East,90,2.0,3.0,76,0.00,,,0.00,TxWx,2013-03-11 07:16:00,
2013-03-11 03:17:00,47.0,40.0,30.16,SSE,157,7.0,7.0,76,0.00,,,0.00,TxWx,2013-03-11 07:17:00,
2013-03-11 03:18:00,47.0,40.0,30.16,SSE,157,13.0,14.0,76,0.00,,,0.00,TxWx,2013-03-11 07:18:00,
2013-03-11 03:19:00,47.0,40.0,30.16,SE,135,5.0,6.0,76,0.00,,,0.00,TxWx,2013-03-11 07:19:00,
2013-03-11 03:25:00,40.0,33.0,30.21,SSE,157,5.0,9.0,77,0.00,,,0.00,TxWx,2013-03-11 07:25:00,
2013-03-11 03:30:00,40.0,33.0,30.20,SE,135,6.0,9.0,77,0.00,,,0.00,TxWx,2013-03-11 07:30:00,
2013-03-11 03:35:00,40.0,33.0,30.20,SW,225,8.0,9.0,77,0.00,,,0.00,TxWx,2013-03-11 07:35:00,
2013-03-11 03:40:00,40.0,33.0,30.20,SSE,157,3.0,6.0,77,0.00,,,0.00,TxWx,2013-03-11 07:40:00,
2013-03-11 03:45:00,40.0,34.0,30.20,SE,135,8.0,10.0,78,0.00,,,0.00,TxWx,2013-03-11 07:45:00,
2013-03-11 03:50:00,40.0,34.0,30.20,East,90,8.0,9.0,78,0.00,,,0.00,TxWx,2013-03-11 07:50:00,
2013-03-11 03:55:00,40.0,34.0,30.20,SSE,157,8.0,10.0,78,0.00,,,0.00,TxWx,2013-03-11 07:55:00,
2013-03-11 04:00:00,40.0,34.0,30.20,South,180,8.0,8.0,78,0.00,,,0.00,TxWx,2013-03-11 08:00:00,
2013-03-11 04:06:00,40.0,33.0,30.20,South,180,6.0,8.0,77,0.00,,,0.00,TxWx,2013-03-11 08:06:00,
2013-03-11 04:11:00,40.0,33.0,30.20,South,180,8.0,8.0,77,0.00,,,0.00,TxWx,2013-03-11 08:11:00,
2013-03-11 04:16:00,40.0,34.0,30.19,SSE,157,4.0,6.0,78,0.00,,,0.00,TxWx,2013-03-11 08:16:00,
2013-03-11 04:21:00,40.0,34.0,30.19,South,180,6.0,7.0,78,0.00,,,0.00,TxWx,2013-03-11 08:21:00,
2013-03-11 04:26:00,40.0,34.0,30.20,SE,135,3.0,6.0,78,0.00,,,0.00,TxWx,2013-03-11 08:26:00,
2013-03-11 04:31:00,40.0,34.0,30.20,ESE,112,5.0,6.0,78,0.00,,,0.00,TxWx,2013-03-11 08:31:00,
2013-03-11 04:36:00,40.0,34.0,30.20,East,90,6.0,6.0,78,0.00,,,0.00,TxWx,2013-03-11 08:36:00,
2013-03-11 04:41:00,40.0,34.0,30.19,SE,135,4.0,9.0,78,0.00,,,0.00,TxWx,2013-03-11 08:41:00,
2013-03-11 04:46:00,40.0,34.0,30.19,SSE,157,5.0,6.0,78,0.00,,,0.00,TxWx,2013-03-11 08:46:00,
2013-03-11 04:55:00,39.0,33.0,30.20,SE,135,2.0,5.0,79,0.00,,,0.00,TxWx,2013-03-11 08:55:00,
2013-03-11 05:00:00,39.0,33.0,30.20,ESE,112,5.0,8.0,79,0.00,,,0.00,TxWx,2013-03-11 09:00:00,
2013-03-11 05:05:00,39.0,33.0,30.20,SSE,157,9.0,10.0,79,0.00,,,0.00,TxWx,2013-03-11 09:05:00,
2013-03-11 05:11:00,39.0,33.0,30.20,SE,135,4.0,11.0,80,0.00,,,0.00,TxWx,2013-03-11 09:11:00,
2013-03-11 05:16:00,39.0,33.0,30.19,SSE,157,6.0,9.0,80,0.00,,,0.00,TxWx,2013-03-11 09:16:00,
2013-03-11 05:21:00,39.0,34.0,30.19,SE,135,7.0,9.0,81,0.00,,,0.00,TxWx,2013-03-11 09:21:00,
2013-03-11 05:26:00,39.0,34.0,30.19,South,180,5.0,6.0,81,0.00,,,0.00,TxWx,2013-03-11 09:26:00,
2013-03-11 05:31:00,39.0,34.0,30.19,South,180,8.0,9.0,81,0.00,,,0.00,TxWx,2013-03-11 09:31:00,
2013-03-11 05:36:00,39.0,34.0,30.20,SSW,202,6.0,7.0,81,0.00,,,0.00,TxWx,2013-03-11 09:36:00,
2013-03-11 05:41:00,39.0,34.0,30.20,South,180,9.0,10.0,82,0.00,,,0.00,TxWx,2013-03-11 09:41:00,
2013-03-11 05:46:00,39.0,34.0,30.20,South,180,9.0,10.0,82,0.00,,,0.00,TxWx,2013-03-11 09:46:00,
2013-03-11 05:47:00,51.0,39.0,30.10,SSE,157,5.0,5.0,64,0.00,,,0.00,TxWx,2013-03-11 09:47:00,
2013-03-11 05:48:00,51.0,39.0,30.10,SSE,157,8.0,8.0,64,0.00,,,0.00,TxWx,2013-03-11 09:48:00,
2013-03-11 05:54:00,39.0,34.0,30.20,South,180,12.0,12.0,82,0.00,,,0.00,TxWx,2013-03-11 09:54:00,
2013-03-11 05:59:00,39.0,34.0,30.20,SSE,157,5.0,6.0,83,0.00,,,0.00,TxWx,2013-03-11 09:59:00,
2013-03-11 06:04:00,39.0,34.0,30.20,SSE,157,6.0,6.0,83,0.00,,,0.00,TxWx,2013-03-11 10:04:00,
2013-03-11 06:09:00,39.0,34.0,30.20,SSE,157,3.0,5.0,83,0.00,,,0.00,TxWx,2013-03-11 10:09:00,
2013-03-11 06:15:00,39.0,34.0,30.20,ESE,112,1.0,3.0,83,0.00,,,0.00,TxWx,2013-03-11 10:15:00,
2013-03-11 06:20:00,38.0,33.0,30.20,East,90,6.0,7.0,84,0.00,,,0.00,TxWx,2013-03-11 10:20:00,
2013-03-11 06:22:00,51.0,38.0,30.09,SSE,157,6.0,6.0,62,0.00,,,0.00,TxWx,2013-03-11 10:22:00,
2013-03-11 06:23:00,51.0,38.0,30.09,ESE,112,8.0,8.0,62,0.00,,,0.00,TxWx,2013-03-11 10:23:00,
2013-03-11 06:24:00,51.0,38.0,30.09,SSE,157,4.0,6.0,62,0.00,,,0.00,TxWx,2013-03-11 10:24:00,
2013-03-11 06:25:00,38.0,34.0,30.20,South,180,6.0,8.0,84,0.00,,,0.00,TxWx,2013-03-11 10:25:00,
2013-03-11 06:26:00,51.0,38.0,30.09,South,180,8.0,8.0,62,0.00,,,0.00,TxWx,2013-03-11 10:26:00,
2013-03-11 06:28:00,51.0,38.0,30.08,ESE,112,5.0,8.0,62,0.00,,,0.00,TxWx,2013-03-11 10:28:00,
2013-03-11 06:29:00,51.0,38.0,30.08,ESE,112,3.0,5.0,62,0.00,,,0.00,TxWx,2013-03-11 10:29:00,
2013-03-11 06:30:00,38.0,34.0,30.21,ESE,112,4.0,7.0,84,0.00,,,0.00,TxWx,2013-03-11 10:30:00,
2013-03-11 06:32:00,51.0,38.0,30.08,ESE,112,4.0,5.0,62,0.00,,,0.00,TxWx,2013-03-11 10:32:00,
2013-03-11 06:33:00,51.0,38.0,30.08,ESE,112,6.0,7.0,62,0.00,,,0.00,TxWx,2013-03-11 10:33:00,
2013-03-11 06:34:00,52.0,39.0,30.08,SE,135,5.0,6.0,62,0.00,,,0.00,TxWx,2013-03-11 10:34:00,
2013-03-11 06:35:00,38.0,34.0,30.21,SE,135,8.0,8.0,84,0.00,,,0.00,TxWx,2013-03-11 10:35:00,
2013-03-11 06:36:00,52.0,39.0,30.08,SSE,157,4.0,6.0,62,0.00,,,0.00,TxWx,2013-03-11 10:36:00,
2013-03-11 06:40:00,38.0,34.0,30.20,ESE,112,3.0,5.0,85,0.00,,,0.00,TxWx,2013-03-11 10:40:00,
2013-03-11 06:45:00,38.0,34.0,30.20,SE,135,6.0,7.0,85,0.00,,,0.00,TxWx,2013-03-11 10:45:00,
2013-03-11 06:50:00,38.0,34.0,30.20,SE,135,7.0,8.0,86,0.00,,,0.00,TxWx,2013-03-11 10:50:00,
2013-03-11 06:52:00,52.0,39.0,30.05,SE,135,6.0,8.0,60,0.00,,,0.00,TxWx,2013-03-11 10:52:00,
2013-03-11 06:53:00,52.0,39.0,30.05,SSE,157,10.0,10.0,60,0.00,,,0.00,TxWx,2013-03-11 10:53:00,
2013-03-11 06:54:00,52.0,39.0,30.05,SE,135,9.0,9.0,60,0.00,,,0.00,TxWx,2013-03-11 10:54:00,
2013-03-11 06:55:00,38.0,34.0,30.20,SSE,157,7.0,8.0,86,0.00,,,0.00,TxWx,2013-03-11 10:55:00,
2013-03-11 06:56:00,52.0,39.0,30.05,SSE,157,7.0,7.0,60,0.00,,,0.00,TxWx,2013-03-11 10:56:00,
2013-03-11 07:00:00,38.0,34.0,30.20,SSE,157,4.0,6.0,86,0.00,,,0.00,TxWx,2013-03-11 11:00:00,
2013-03-11 07:06:00,38.0,34.0,30.20,ESE,112,5.0,9.0,86,0.00,,,0.00,TxWx,2013-03-11 11:06:00,
2013-03-11 07:11:00,38.0,34.0,30.20,ESE,112,11.0,12.0,86,0.00,,,0.00,TxWx,2013-03-11 11:11:00,
2013-03-11 07:16:00,38.0,34.0,30.20,ESE,112,5.0,8.0,86,0.00,,,0.00,TxWx,2013-03-11 11:16:00,
2013-03-11 07:21:00,38.0,34.0,30.21,SSE,157,11.0,11.0,86,0.00,,,0.00,TxWx,2013-03-11 11:21:00,
2013-03-11 07:26:00,38.0,34.0,30.20,ESE,112,10.0,10.0,86,0.00,,,0.00,TxWx,2013-03-11 11:26:00,
2013-03-11 07:27:00,52.0,39.0,30.05,South,180,5.0,9.0,62,0.00,,,0.00,TxWx,2013-03-11 11:27:00,
2013-03-11 07:28:00,52.0,39.0,30.05,ESE,112,12.0,14.0,62,0.00,,,0.00,TxWx,2013-03-11 11:28:00,
2013-03-11 07:31:00,38.0,34.0,30.20,ESE,112,5.0,7.0,87,0.00,,,0.00,TxWx,2013-03-11 11:31:00,
2013-03-11 07:36:00,38.0,34.0,30.20,SSE,157,4.0,9.0,87,0.00,,,0.00,TxWx,2013-03-11 11:36:00,
2013-03-11 07:41:00,38.0,34.0,30.20,SE,135,5.0,8.0,87,0.00,,,0.00,TxWx,2013-03-11 11:41:00,
2013-03-11 07:50:00,38.0,34.0,30.19,ESE,112,8.0,10.0,87,0.00,,,0.00,TxWx,2013-03-11 11:50:00,
2013-03-11 07:55:00,38.0,34.0,30.19,SE,135,11.0,11.0,87,0.00,,,0.00,TxWx,2013-03-11 11:55:00,
2013-03-11 08:00:00,38.0,34.0,30.19,SSE,157,8.0,14.0,87,0.00,,,0.00,TxWx,2013-03-11 12:00:00,
2013-03-11 08:05:00,38.0,34.0,30.19,SE,135,8.0,9.0,87,0.00,,,0.00,TxWx,2013-03-11 12:05:00,
2013-03-11 08:10:00,39.0,35.0,30.19,SSE,157,8.0,8.0,87,0.00,,,0.00,TxWx,2013-03-11 12:10:00,
2013-03-11 08:15:00,39.0,36.0,30.19,ESE,112,10.0,14.0,88,0.00,,,0.00,TxWx,2013-03-11 12:15:00,
2013-03-11 08:20:00,39.0,36.0,30.19,ESE,112,5.0,8.0,88,0.00,,,0.00,TxWx,2013-03-11 12:20:00,
2013-03-11 08:25:00,39.0,36.0,30.19,SE,135,5.0,5.0,88,0.00,,,0.00,TxWx,2013-03-11 12:25:00,
2013-03-11 08:27:00,52.0,40.0,30.05,SSE,157,11.0,13.0,65,0.00,,,0.00,TxWx,2013-03-11 12:27:00,
2013-03-11 08:31:00,39.0,36.0,30.19,South,180,5.0,6.0,88,0.00,,,0.00,TxWx,2013-03-11 12:31:00,
2013-03-11 08:36:00,39.0,36.0,30.19,ESE,112,12.0,12.0,88,0.00,,,0.00,TxWx,2013-03-11 12:36:00,
2013-03-11 08:41:00,39.0,36.0,30.19,South,180,6.0,8.0,88,0.00,,,0.00,TxWx,2013-03-11 12:41:00,
2013-03-11 08:47:00,52.0,41.0,30.04,SE,135,9.0,9.0,65,0.00,,,0.00,TxWx,2013-03-11 12:47:00,
2013-03-11 08:51:00,40.0,37.0,30.19,SSE,157,6.0,9.0,88,0.00,,,0.00,TxWx,2013-03-11 12:51:00,
2013-03-11 08:52:00,52.0,41.0,30.05,SSE,157,4.0,5.0,65,0.00,,,0.00,TxWx,2013-03-11 12:52:00,
2013-03-11 08:53:00,51.0,40.0,30.04,South,180,3.0,5.0,65,0.00,,,0.00,TxWx,2013-03-11 12:53:00,
2013-03-11 08:54:00,51.0,40.0,30.04,SSE,157,5.0,5.0,66,0.00,,,0.00,TxWx,2013-03-11 12:54:00,
2013-03-11 08:55:00,51.0,40.0,30.04,South,180,8.0,8.0,66,0.00,,,0.00,TxWx,2013-03-11 12:55:00,
2013-03-11 08:56:00,40.0,37.0,30.20,ESE,112,8.0,10.0,88,0.00,,,0.00,TxWx,2013-03-11 12:56:00,
2013-03-11 09:01:00,40.0,37.0,30.20,SSE,157,8.0,8.0,88,0.00,,,0.00,TxWx,2013-03-11 13:01:00,
2013-03-11 09:02:00,51.0,41.0,30.04,SSE,157,6.0,8.0,69,0.00,,,0.00,TxWx,2013-03-11 13:02:00,
2013-03-11 09:03:00,51.0,41.0,30.04,SSE,157,5.0,6.0,69,0.00,,,0.00,TxWx,2013-03-11 13:03:00,
2013-03-11 09:04:00,50.0,40.0,30.04,South,180,5.0,6.0,69,0.00,,,0.00,TxWx,2013-03-11 13:04:00,
2013-03-11 09:05:00,50.0,40.0,30.03,South,180,7.0,7.0,69,0.00,,,0.00,TxWx,2013-03-11 13:05:00,
2013-03-11 09:06:00,41.0,37.0,30.20,SSW,202,6.0,8.0,87,0.00,,,0.00,TxWx,2013-03-11 13:06:00,
2013-03-11 09:11:00,41.0,37.0,30.20,SSW,202,4.0,6.0,87,0.00,,,0.00,TxWx,2013-03-11 13:11:00,
2013-03-11 09:16:00,41.0,37.0,30.21,SE,135,5.0,8.0,86,0.00,,,0.00,TxWx,2013-03-11 13:16:00,
2013-03-11 09:21:00,41.0,37.0,30.21,SE,135,8.0,8.0,86,0.00,,,0.00,TxWx,2013-03-11 13:21:00,
2013-03-11 09:27:00,41.0,37.0,30.21,ESE,112,4.0,5.0,86,0.00,,,0.00,TxWx,2013-03-11 13:27:00,
2013-03-11 09:32:00,42.0,38.0,30.20,SE,135,6.0,6.0,86,0.00,,,0.00,TxWx,2013-03-11 13:32:00,
2013-03-11 09:37:00,42.0,38.0,30.21,SE,135,13.0,13.0,85,0.00,,,0.00,TxWx,2013-03-11 13:37:00,
2013-03-11 09:42:00,42.0,38.0,30.21,SSE,157,10.0,13.0,85,0.00,,,0.00,TxWx,2013-03-11 13:42:00,
2013-03-11 09:47:00,42.0,38.0,30.21,SE,135,5.0,5.0,85,0.00,,,0.00,TxWx,2013-03-11 13:47:00,
2013-03-11 09:52:00,42.0,38.0,30.21,East,90,5.0,10.0,84,0.00,,,0.00,TxWx,2013-03-11 13:52:00,
2013-03-11 09:57:00,42.0,38.0,30.21,South,180,14.0,14.0,84,0.00,,,0.00,TxWx,2013-03-11 13:57:00,
2013-03-11 10:02:00,43.0,38.0,30.21,SE,135,7.0,9.0,84,0.00,,,0.00,TxWx,2013-03-11 14:02:00,
2013-03-11 10:07:00,43.0,38.0,30.21,ESE,112,13.0,13.0,84,0.00,,,0.00,TxWx,2013-03-11 14:07:00,
2013-03-11 10:12:00,43.0,38.0,30.21,South,180,9.0,10.0,84,0.00,,,0.00,TxWx,2013-03-11 14:12:00,
2013-03-11 10:17:00,43.0,38.0,30.21,ESE,112,6.0,8.0,84,0.00,,,0.00,TxWx,2013-03-11 14:17:00,
2013-03-11 10:22:00,43.0,38.0,30.21,SSE,157,8.0,12.0,84,0.00,,,0.00,TxWx,2013-03-11 14:22:00,
2013-03-11 10:27:00,43.0,39.0,30.20,SE,135,7.0,11.0,85,0.00,,,0.00,TxWx,2013-03-11 14:27:00,
2013-03-11 10:32:00,51.0,41.0,30.05,North,0,8.0,13.0,69,0.00,,,0.00,TxWx,2013-03-11 14:32:00,
2013-03-11 10:33:00,43.0,39.0,30.20,SE,135,12.0,13.0,85,0.00,,,0.00,TxWx,2013-03-11 14:33:00,
2013-03-11 10:34:00,51.0,41.0,30.04,SSE,157,6.0,12.0,69,0.00,,,0.00,TxWx,2013-03-11 14:34:00,
2013-03-11 10:35:00,51.0,41.0,30.04,SSE,157,13.0,15.0,69,0.00,,,0.00,TxWx,2013-03-11 14:35:00,
2013-03-11 10:36:00,51.0,41.0,30.04,SE,135,15.0,15.0,69,0.00,,,0.00,TxWx,2013-03-11 14:36:00,
2013-03-11 10:38:00,43.0,39.0,30.19,SE,135,14.0,14.0,85,0.00,,,0.00,TxWx,2013-03-11 14:38:00,
2013-03-11 10:42:00,51.0,41.0,30.04,SSE,157,3.0,5.0,70,0.00,,,0.00,TxWx,2013-03-11 14:42:00,
2013-03-11 10:43:00,43.0,39.0,30.19,East,90,6.0,11.0,85,0.00,,,0.00,TxWx,2013-03-11 14:43:00,
2013-03-11 10:44:00,50.0,41.0,30.04,SSE,157,14.0,21.0,71,0.00,,,0.00,TxWx,2013-03-11 14:44:00,
2013-03-11 10:45:00,50.0,41.0,30.04,South,180,10.0,14.0,71,0.00,,,0.00,TxWx,2013-03-11 14:45:00,
2013-03-11 10:46:00,50.0,41.0,30.04,SSE,157,13.0,17.0,71,0.00,,,0.00,TxWx,2013-03-11 14:46:00,
2013-03-11 10:48:00,44.0,40.0,30.19,SSE,157,10.0,12.0,85,0.00,,,0.00,TxWx,2013-03-11 14:48:00,
2013-03-11 10:53:00,44.0,40.0,30.19,ESE,112,16.0,19.0,85,0.00,,,0.00,TxWx,2013-03-11 14:53:00,
2013-03-11 10:57:00,50.0,41.0,30.04,SE,135,8.0,10.0,73,0.00,,,0.00,TxWx,2013-03-11 14:57:00,
2013-03-11 10:58:00,44.0,40.0,30.19,SSW,202,8.0,8.0,85,0.00,,,0.00,TxWx,2013-03-11 14:58:00,
2013-03-11 10:59:00,50.0,42.0,30.04,ENE,67,11.0,19.0,73,0.00,,,0.00,TxWx,2013-03-11 14:59:00,
2013-03-11 11:00:00,50.0,42.0,30.04,SE,135,13.0,14.0,73,0.00,,,0.00,TxWx,2013-03-11 15:00:00,
2013-03-11 11:01:00,50.0,42.0,30.04,SSE,157,10.0,10.0,73,0.00,,,0.00,TxWx,2013-03-11 15:01:00,
2013-03-11 11:03:00,44.0,40.0,30.19,SSE,157,8.0,10.0,85,0.00,,,0.00,TxWx,2013-03-11 15:03:00,
2013-03-11 11:08:00,44.0,40.0,30.20,South,180,8.0,11.0,85,0.00,,,0.00,TxWx,2013-03-11 15:08:00,
2013-03-11 11:13:00,44.0,40.0,30.20,South,180,16.0,16.0,85,0.00,,,0.00,TxWx,2013-03-11 15:13:00,
2013-03-11 11:18:00,44.0,40.0,30.19,SSE,157,4.0,8.0,85,0.00,,,0.00,TxWx,2013-03-11 15:18:00,
2013-03-11 11:24:00,44.0,40.0,30.19,South,180,4.0,8.0,85,0.00,,,0.00,TxWx,2013-03-11 15:24:00,
2013-03-11 11:29:00,45.0,39.0,30.20,SSE,157,10.0,11.0,84,0.00,,,0.00,TxWx,2013-03-11 15:29:00,
2013-03-11 11:32:00,49.0,42.0,30.04,East,90,16.0,21.0,78,0.00,,,0.00,TxWx,2013-03-11 15:32:00,
2013-03-11 11:33:00,49.0,42.0,30.05,SSW,202,11.0,13.0,78,0.00,,,0.00,TxWx,2013-03-11 15:33:00,
2013-03-11 11:34:00,45.0,40.0,30.20,SE,135,9.0,9.0,84,0.00,,,0.00,TxWx,2013-03-11 15:34:00,
2013-03-11 11:35:00,49.0,42.0,30.05,SSE,157,8.0,15.0,78,0.00,,,0.00,TxWx,2013-03-11 15:35:00,
2013-03-11 11:39:00,45.0,40.0,30.19,West,270,3.0,7.0,84,0.00,,,0.00,TxWx,2013-03-11 15:39:00,
2013-03-11 11:45:00,45.0,40.0,30.19,SSE,157,7.0,9.0,83,0.00,,,0.00,TxWx,2013-03-11 15:45:00,
2013-03-11 11:50:00,45.0,40.0,30.19,SE,135,7.0,8.0,83,0.00,,,0.00,TxWx,2013-03-11 15:50:00,
2013-03-11 11:56:00,45.0,40.0,30.19,SW,225,3.0,11.0,83,0.00,,,0.00,TxWx,2013-03-11 15:56:00,
2013-03-11 12:01:00,45.0,40.0,30.19,SSE,157,15.0,16.0,82,0.00,,,0.00,TxWx,2013-03-11 16:01:00,
2013-03-11 12:06:00,45.0,40.0,30.18,South,180,8.0,8.0,82,0.00,,,0.00,TxWx,2013-03-11 16:06:00,
2013-03-11 12:11:00,45.0,40.0,30.18,East,90,8.0,10.0,81,0.00,,,0.00,TxWx,2013-03-11 16:11:00,
2013-03-11 12:16:00,46.0,40.0,30.17,SE,135,4.0,5.0,81,0.00,,,0.00,TxWx,2013-03-11 16:16:00,
2013-03-11 12:21:00,46.0,40.0,30.17,SSE,157,10.0,11.0,80,0.00,,,0.00,TxWx,2013-03-11 16:21:00,
2013-03-11 12:26:00,46.0,40.0,30.17,SSE,157,8.0,8.0,80,0.00,,,0.00,TxWx,2013-03-11 16:26:00,
2013-03-11 12:32:00,46.0,40.0,30.17,SE,135,5.0,9.0,79,0.00,,,0.00,TxWx,2013-03-11 16:32:00,
2013-03-11 12:37:00,46.0,40.0,30.17,ESE,112,3.0,6.0,79,0.00,,,0.00,TxWx,2013-03-11 16:37:00,
2013-03-11 12:47:00,46.0,40.0,30.17,SSE,157,5.0,8.0,78,0.00,,,0.00,TxWx,2013-03-11 16:47:00,
2013-03-11 12:52:00,47.0,40.0,30.17,SW,225,10.0,11.0,78,0.00,,,0.00,TxWx,2013-03-11 16:52:00,
2013-03-11 12:57:00,47.0,40.0,30.17,South,180,9.0,9.0,77,0.00,,,0.00,TxWx,2013-03-11 16:57:00,
2013-03-11 13:03:00,47.0,40.0,30.17,South,180,5.0,9.0,77,0.00,,,0.00,TxWx,2013-03-11 17:03:00,
2013-03-11 13:08:00,47.0,40.0,30.17,SE,135,5.0,6.0,76,0.00,,,0.00,TxWx,2013-03-11 17:08:00,
2013-03-11 13:13:00,47.0,40.0,30.17,SW,225,5.0,11.0,76,0.00,,,0.00,TxWx,2013-03-11 17:13:00,
2013-03-11 13:19:00,47.0,40.0,30.16,SE,135,5.0,6.0,76,0.00,,,0.00,TxWx,2013-03-11 17:19:00,
2013-03-11 13:24:00,48.0,40.0,30.16,ESE,112,4.0,6.0,75,0.00,,,0.00,TxWx,2013-03-11 17:24:00,
2013-03-11 13:29:00,48.0,40.0,30.16,East,90,8.0,11.0,75,0.00,,,0.00,TxWx,2013-03-11 17:29:00,
2013-03-11 13:35:00,48.0,40.0,30.15,SE,135,3.0,7.0,74,0.00,,,0.00,TxWx,2013-03-11 17:35:00,
2013-03-11 13:40:00,48.0,40.0,30.15,SE,135,7.0,8.0,74,0.00,,,0.00,TxWx,2013-03-11 17:40:00,
2013-03-11 13:45:00,48.0,40.0,30.15,ESE,112,6.0,8.0,74,0.00,,,0.00,TxWx,2013-03-11 17:45:00,
2013-03-11 13:51:00,48.0,40.0,30.15,ESE,112,5.0,6.0,74,0.00,,,0.00,TxWx,2013-03-11 17:51:00,
2013-03-11 13:56:00,48.0,40.0,30.15,SSE,157,5.0,6.0,73,0.00,,,0.00,TxWx,2013-03-11 17:56:00,
2013-03-11 13:57:00,50.0,45.0,29.99,South,180,11.0,11.0,84,0.00,,,0.00,TxWx,2013-03-11 17:57:00,
2013-03-11 13:58:00,50.0,45.0,29.99,ESE,112,11.0,11.0,84,0.00,,,0.00,TxWx,2013-03-11 17:58:00,
2013-03-11 13:59:00,50.0,45.0,29.99,SSE,157,9.0,11.0,84,0.00,,,0.00,TxWx,2013-03-11 17:59:00,
2013-03-11 14:00:00,50.0,45.0,29.99,ESE,112,10.0,10.0,84,0.00,,,0.00,TxWx,2013-03-11 18:00:00,
2013-03-11 14:01:00,48.0,40.0,30.14,South,180,5.0,5.0,73,0.00,,,0.00,TxWx,2013-03-11 18:01:00,
2013-03-11 14:02:00,50.0,45.0,29.99,ESE,112,5.0,8.0,84,0.00,,,0.00,TxWx,2013-03-11 18:02:00,
2013-03-11 14:03:00,50.0,45.0,29.99,SE,135,5.0,10.0,84,0.00,,,0.00,TxWx,2013-03-11 18:03:00,
2013-03-11 14:04:00,50.0,46.0,29.99,ESE,112,15.0,17.0,85,0.00,,,0.00,TxWx,2013-03-11 18:04:00,
2013-03-11 14:05:00,50.0,46.0,29.99,South,180,10.0,10.0,85,0.00,,,0.00,TxWx,2013-03-11 18:05:00,
2013-03-11 14:06:00,49.0,40.0,30.14,SE,135,7.0,10.0,72,0.00,,,0.00,TxWx,2013-03-11 18:06:00,
2013-03-11 14:11:00,49.0,40.0,30.14,SSE,157,4.0,4.0,72,0.00,,,0.00,TxWx,2013-03-11 18:11:00,
2013-03-11 14:12:00,50.0,46.0,30.00,SSE,157,7.0,8.0,85,0.00,,,0.00,TxWx,2013-03-11 18:12:00,
2013-03-11 14:13:00,50.0,46.0,29.99,South,180,7.0,10.0,85,0.00,,,0.00,TxWx,2013-03-11 18:13:00,
2013-03-11 14:14:00,50.0,46.0,30.00,East,90,9.0,9.0,85,0.00,,,0.00,TxWx,2013-03-11 18:14:00,
2013-03-11 14:15:00,50.0,46.0,30.00,SSE,157,9.0,12.0,85,0.00,,,0.00,TxWx,2013-03-11 18:15:00,
2013-03-11 14:17:00,49.0,40.0,30.13,SSE,157,10.0,10.0,71,0.00,,,0.00,TxWx,2013-03-11 18:17:00,
2013-03-11 14:22:00,49.0,40.0,30.13,ESE,112,8.0,8.0,71,0.00,,,0.00,TxWx,2013-03-11 18:22:00,
2013-03-11 14:27:00,49.0,40.0,30.13,SSE,157,7.0,11.0,71,0.00,,,0.00,TxWx,2013-03-11 18:27:00,
2013-03-11 14:28:00,50.0,46.0,30.00,South,180,10.0,13.0,86,0.00,,,0.00,TxWx,2013-03-11 18:28:00,
2013-03-11 14:29:00,50.0,46.0,30.00,ESE,112,6.0,8.0,86,0.00,,,0.00,TxWx,2013-03-11 18:29:00,
2013-03-11 14:30:00,50.0,46.0,30.00,ESE,112,8.0,10.0,86,0.00,,,0.00,TxWx,2013-03-11 18:30:00,
2013-03-11 14:31:00,50.0,46.0,30.00,SSW,202,8.0,9.0,86,0.00,,,0.00,TxWx,2013-03-11 18:31:00,
2013-03-11 14:33:00,49.0,40.0,30.13,SE,135,5.0,8.0,70,0.00,,,0.00,TxWx,2013-03-11 18:33:00,
2013-03-11 14:37:00,50.0,46.0,29.99,ESE,112,23.0,24.0,86,0.00,,,0.00,TxWx,2013-03-11 18:37:00,
2013-03-11 14:38:00,49.0,40.0,30.13,SSE,157,6.0,6.0,70,0.00,,,0.00,TxWx,2013-03-11 18:38:00,
2013-03-11 14:39:00,50.0,46.0,29.99,South,180,16.0,21.0,87,0.00,,,0.00,TxWx,2013-03-11 18:39:00,
2013-03-11 14:40:00,50.0,46.0,29.99,ESE,112,9.0,16.0,86,0.00,,,0.00,TxWx,2013-03-11 18:40:00,
2013-03-11 14:41:00,50.0,46.0,29.98,SSE,157,19.0,23.0,86,0.00,,,0.00,TxWx,2013-03-11 18:41:00,
2013-03-11 14:43:00,50.0,40.0,30.13,SSE,157,7.0,10.0,70,0.00,,,0.00,TxWx,2013-03-11 18:43:00,
2013-03-11 14:48:00,50.0,40.0,30.12,SSE,157,8.0,8.0,70,0.00,,,0.00,TxWx,2013-03-11 18:48:00,
2013-03-11 14:52:00,50.0,46.0,29.97,SSE,157,10.0,12.0,87,0.00,,,0.00,TxWx,2013-03-11 18:52:00,
2013-03-11 14:53:00,50.0,40.0,30.12,SE,135,8.0,9.0,69,0.00,,,0.00,TxWx,2013-03-11 18:53:00,
2013-03-11 14:57:00,51.0,47.0,29.97,ESE,112,6.0,10.0,87,0.00,,,0.00,TxWx,2013-03-11 18:57:00,
2013-03-11 14:58:00,51.0,47.0,29.97,ESE,112,11.0,20.0,87,0.00,,,0.00,TxWx,2013-03-11 18:58:00,
2013-03-11 14:59:00,50.0,40.0,30.12,South,180,3.0,3.0,69,0.00,,,0.00,TxWx,2013-03-11 18:59:00,
2013-03-11 15:00:00,51.0,47.0,29.97,ESE,112,14.0,14.0,87,0.00,,,0.00,TxWx,2013-03-11 19:00:00,
2013-03-11 15:01:00,51.0,47.0,29.97,SSE,157,11.0,11.0,87,0.00,,,0.00,TxWx,2013-03-11 19:01:00,
2013-03-11 15:02:00,51.0,47.0,29.97,SSE,157,10.0,17.0,87,0.00,,,0.00,TxWx,2013-03-11 19:02:00,
2013-03-11 15:03:00,51.0,47.0,29.97,South,180,13.0,13.0,87,0.00,,,0.00,TxWx,2013-03-11 19:03:00,
2013-03-11 15:04:00,50.0,40.0,30.12,SSE,157,6.0,6.0,69,0.00,,,0.00,TxWx,2013-03-11 19:04:00,
2013-03-11 15:05:00,51.0,47.0,29.97,ESE,112,14.0,16.0,87,0.00,,,0.00,TxWx,2013-03-11 19:05:00,
2013-03-11 15:06:00,51.0,47.0,29.97,South,180,9.0,15.0,87,0.00,,,0.00,TxWx,2013-03-11 19:06:00,
2013-03-11 15:09:00,50.0,40.0,30.11,ESE,112,6.0,8.0,68,0.00,,,0.00,TxWx,2013-03-11 19:09:00,
2013-03-11 15:12:00,51.0,47.0,29.96,South,180,10.0,11.0,87,0.00,,,0.00,TxWx,2013-03-11 19:12:00,
2013-03-11 15:13:00,51.0,47.0,29.96,ESE,112,13.0,13.0,87,0.00,,,0.00,TxWx,2013-03-11 19:13:00,
2013-03-11 15:14:00,51.0,47.0,29.96,SSE,157,6.0,9.0,87,0.00,,,0.00,TxWx,2013-03-11 19:14:00,
2013-03-11 15:15:00,50.0,40.0,30.11,SE,135,3.0,7.0,68,0.00,,,0.00,TxWx,2013-03-11 19:15:00,
2013-03-11 15:16:00,51.0,47.0,29.96,ESE,112,9.0,13.0,87,0.00,,,0.00,TxWx,2013-03-11 19:16:00,
2013-03-11 15:20:00,51.0,40.0,30.11,East,90,3.0,7.0,67,0.00,,,0.00,TxWx,2013-03-11 19:20:00,
2013-03-11 15:25:00,51.0,40.0,30.11,SSE,157,11.0,13.0,67,0.00,,,0.00,TxWx,2013-03-11 19:25:00,
2013-03-11 15:31:00,51.0,39.0,30.10,ESE,112,18.0,18.0,65,0.00,,,0.00,TxWx,2013-03-11 19:31:00,
2013-03-11 15:36:00,51.0,39.0,30.10,South,180,12.0,18.0,65,0.00,,,0.00,TxWx,2013-03-11 19:36:00,
2013-03-11 15:41:00,51.0,39.0,30.10,SSW,202,4.0,5.0,65,0.00,,,0.00,TxWx,2013-03-11 19:41:00,
2013-03-11 15:47:00,51.0,39.0,30.10,South,180,10.0,11.0,64,0.00,,,0.00,TxWx,2013-03-11 19:47:00,
2013-03-11 15:52:00,51.0,39.0,30.09,South,180,8.0,10.0,63,0.00,,,0.00,TxWx,2013-03-11 19:52:00,
2013-03-11 15:57:00,51.0,38.0,30.09,SSE,157,10.0,10.0,62,0.00,,,0.00,TxWx,2013-03-11 19:57:00,
2013-03-11 16:02:00,51.0,38.0,30.09,SSE,157,5.0,6.0,62,0.00,,,0.00,TxWx,2013-03-11 20:02:00,
2013-03-11 16:07:00,51.0,38.0,30.09,SSE,157,7.0,7.0,62,0.00,,,0.00,TxWx,2013-03-11 20:07:00,
2013-03-11 16:12:00,51.0,38.0,30.08,ESE,112,11.0,14.0,62,0.00,,,0.00,TxWx,2013-03-11 20:12:00,
2013-03-11 16:18:00,51.0,38.0,30.09,South,180,6.0,7.0,62,0.00,,,0.00,TxWx,2013-03-11 20:18:00,
2013-03-11 16:23:00,51.0,38.0,30.09,North,0,3.0,7.0,62,0.00,,,0.00,TxWx,2013-03-11 20:23:00,
2013-03-11 16:28:00,51.0,38.0,30.08,South,180,3.0,5.0,62,0.00,,,0.00,TxWx,2013-03-11 20:28:00,
2013-03-11 16:33:00,52.0,39.0,30.08,ESE,112,5.0,7.0,62,0.00,,,0.00,TxWx,2013-03-11 20:33:00,
2013-03-11 16:38:00,52.0,39.0,30.07,SSE,157,8.0,8.0,61,0.00,,,0.00,TxWx,2013-03-11 20:38:00,
2013-03-11 16:43:00,52.0,39.0,30.06,SE,135,3.0,5.0,60,0.00,,,0.00,TxWx,2013-03-11 20:43:00,
2013-03-11 16:48:00,52.0,39.0,30.05,ESE,112,6.0,9.0,60,0.00,,,0.00,TxWx,2013-03-11 20:48:00,
2013-03-11 16:55:00,52.0,39.0,30.05,ESE,112,12.0,12.0,60,0.00,,,0.00,TxWx,2013-03-11 20:55:00,
2013-03-11 17:00:00,52.0,38.0,30.05,South,180,6.0,6.0,60,0.00,,,0.00,TxWx,2013-03-11 21:00:00,
2013-03-11 17:05:00,52.0,39.0,30.05,South,180,8.0,8.0,60,0.00,,,0.00,TxWx,2013-03-11 21:05:00,
2013-03-11 17:10:00,52.0,39.0,30.05,ESE,112,12.0,12.0,61,0.00,,,0.00,TxWx,2013-03-11 21:10:00,
2013-03-11 17:15:00,52.0,39.0,30.05,SE,135,15.0,19.0,61,0.00,,,0.00,TxWx,2013-03-11 21:15:00,
2013-03-11 17:21:00,52.0,39.0,30.05,ESE,112,8.0,9.0,61,0.00,,,0.00,TxWx,2013-03-11 21:21:00,
2013-03-11 17:26:00,52.0,39.0,30.05,South,180,8.0,8.0,62,0.00,,,0.00,TxWx,2013-03-11 21:26:00,
2013-03-11 17:31:00,52.0,39.0,30.05,East,90,6.0,11.0,62,0.00,,,0.00,TxWx,2013-03-11 21:31:00,
2013-03-11 17:36:00,52.0,39.0,30.05,East,90,8.0,8.0,62,0.00,,,0.00,TxWx,2013-03-11 21:36:00,
2013-03-11 17:41:00,52.0,40.0,30.05,SSE,157,9.0,13.0,63,0.00,,,0.00,TxWx,2013-03-11 21:41:00,
2013-03-11 17:46:00,52.0,40.0,30.05,South,180,16.0,16.0,63,0.00,,,0.00,TxWx,2013-03-11 21:46:00,
2013-03-11 17:51:00,52.0,40.0,30.05,SSE,157,8.0,10.0,63,0.00,,,0.00,TxWx,2013-03-11 21:51:00,
2013-03-11 17:56:00,52.0,40.0,30.04,South,180,8.0,11.0,64,0.00,,,0.00,TxWx,2013-03-11 21:56:00,
2013-03-11 18:01:00,52.0,40.0,30.05,SSE,157,8.0,10.0,64,0.00,,,0.00,TxWx,2013-03-11 22:01:00,
2013-03-11 18:06:00,52.0,40.0,30.04,SSW,202,4.0,5.0,64,0.00,,,0.00,TxWx,2013-03-11 22:06:00,
2013-03-11 18:11:00,52.0,40.0,30.04,South,180,11.0,11.0,64,0.00,,,0.00,TxWx,2013-03-11 22:11:00,
2013-03-11 18:16:00,52.0,40.0,30.04,SSE,157,6.0,10.0,65,0.00,,,0.00,TxWx,2013-03-11 22:16:00,
2013-03-11 18:22:00,52.0,40.0,30.04,South,180,4.0,5.0,65,0.00,,,0.00,TxWx,2013-03-11 22:22:00,
2013-03-11 18:27:00,52.0,40.0,30.05,SE,135,3.0,7.0,65,0.00,,,0.00,TxWx,2013-03-11 22:27:00,
2013-03-11 18:32:00,52.0,41.0,30.04,South,180,5.0,6.0,65,0.00,,,0.00,TxWx,2013-03-11 22:32:00,
2013-03-11 18:37:00,52.0,41.0,30.04,SE,135,5.0,6.0,65,0.00,,,0.00,TxWx,2013-03-11 22:37:00,
2013-03-11 18:42:00,52.0,41.0,30.04,South,180,5.0,7.0,65,0.00,,,0.00,TxWx,2013-03-11 22:42:00,
2013-03-11 18:47:00,52.0,41.0,30.04,SSE,157,4.0,5.0,65,0.00,,,0.00,TxWx,2013-03-11 22:47:00,
2013-03-11 18:52:00,54.0,50.0,29.91,SSW,202,11.0,18.0,87,0.00,,,0.00,TxWx,2013-03-11 22:52:00,
2013-03-11 18:53:00,54.0,50.0,29.91,South,180,8.0,10.0,87,0.00,,,0.00,TxWx,2013-03-11 22:53:00,
2013-03-11 18:54:00,54.0,50.0,29.91,SE,135,7.0,11.0,87,0.00,,,0.00,TxWx,2013-03-11 22:54:00,
2013-03-11 18:55:00,51.0,40.0,30.04,South,180,5.0,5.0,66,0.00,,,0.00,TxWx,2013-03-11 22:55:00,
2013-03-11 18:56:00,54.0,50.0,29.90,SE,135,10.0,15.0,87,0.00,,,0.00,TxWx,2013-03-11 22:56:00,
2013-03-11 19:00:00,51.0,41.0,30.04,SSE,157,9.0,9.0,68,0.00,,,0.00,TxWx,2013-03-11 23:00:00,
2013-03-11 19:05:00,50.0,40.0,30.03,SSE,157,6.0,7.0,69,0.00,,,0.00,TxWx,2013-03-11 23:05:00,
2013-03-11 19:11:00,50.0,41.0,30.03,South,180,4.0,6.0,70,0.00,,,0.00,TxWx,2013-03-11 23:11:00,
2013-03-11 19:12:00,54.0,50.0,29.89,ESE,112,7.0,10.0,87,0.00,,,0.00,TxWx,2013-03-11 23:12:00,
2013-03-11 19:13:00,54.0,50.0,29.89,South,180,10.0,15.0,87,0.00,,,0.00,TxWx,2013-03-11 23:13:00,
2013-03-11 19:14:00,54.0,50.0,29.89,SE,135,7.0,13.0,87,0.00,,,0.00,TxWx,2013-03-11 23:14:00,
2013-03-11 19:15:00,54.0,50.0,29.90,SE,135,11.0,14.0,87,0.00,,,0.00,TxWx,2013-03-11 23:15:00,
2013-03-11 19:16:00,50.0,41.0,30.04,SSE,157,4.0,5.0,70,0.00,,,0.00,TxWx,2013-03-11 23:16:00,
2013-03-11 19:21:00,50.0,41.0,30.03,South,180,3.0,4.0,70,0.00,,,0.00,TxWx,2013-03-11 23:21:00,
2013-03-11 19:26:00,50.0,41.0,30.04,SE,135,5.0,5.0,70,0.00,,,0.00,TxWx,2013-03-11 23:26:00,
2013-03-11 19:31:00,50.0,41.0,30.04,SSE,157,4.0,6.0,70,0.00,,,0.00,TxWx,2013-03-11 23:31:00,
2013-03-11 19:36:00,50.0,40.0,30.04,SSE,157,4.0,4.0,69,0.00,,,0.00,TxWx,2013-03-11 23:36:00,
2013-03-11 19:41:00,51.0,41.0,30.03,East,90,3.0,3.0,68,0.00,,,0.00,TxWx,2013-03-11 23:41:00,
2013-03-11 19:46:00,51.0,41.0,30.04,SW,225,5.0,9.0,68,0.00,,,0.00,TxWx,2013-03-11 23:46:00,
2013-03-11 19:52:00,51.0,40.0,30.04,East,90,7.0,8.0,67,0.00,,,0.00,TxWx,2013-03-11 23:52:00,
2013-03-11 19:57:00,51.0,40.0,30.04,South,180,9.0,9.0,67,0.00,,,0.00,TxWx,2013-03-11 23:57:00,
2013-03-11 20:02:00,51.0,40.0,30.04,ESE,112,5.0,11.0,67,0.00,,,0.00,TxWx,2013-03-12 00:02:00,
2013-03-11 20:07:00,51.0,40.0,30.04,SE,135,7.0,11.0,67,0.00,,,0.00,TxWx,2013-03-12 00:07:00,
2013-03-11 20:12:00,51.0,40.0,30.04,South,180,5.0,8.0,67,0.00,,,0.00,TxWx,2013-03-12 00:12:00,
2013-03-11 20:17:00,51.0,40.0,30.04,ESE,112,6.0,14.0,67,0.00,,,0.00,TxWx,2013-03-12 00:17:00,
2013-03-11 20:22:00,51.0,41.0,30.05,ESE,112,10.0,11.0,68,0.00,,,0.00,TxWx,2013-03-12 00:22:00,
2013-03-11 20:27:00,51.0,41.0,30.05,ESE,112,10.0,14.0,68,0.00,,,0.00,TxWx,2013-03-12 00:27:00,
2013-03-11 20:32:00,54.0,50.0,29.89,ESE,112,8.0,8.0,88,0.00,,,0.00,TxWx,2013-03-12 00:32:00,
2013-03-11 20:33:00,54.0,50.0,29.89,SSE,157,10.0,13.0,88,0.00,,,0.00,TxWx,2013-03-12 00:33:00,
2013-03-11 20:34:00,54.0,50.0,29.89,SE,135,13.0,14.0,88,0.00,,,0.00,TxWx,2013-03-12 00:34:00,
2013-03-11 20:35:00,51.0,41.0,30.04,ESE,112,11.0,13.0,69,0.00,,,0.00,TxWx,2013-03-12 00:35:00,
2013-03-11 20:36:00,54.0,50.0,29.89,ESE,112,6.0,6.0,88,0.00,,,0.00,TxWx,2013-03-12 00:36:00,
2013-03-11 20:40:00,51.0,41.0,30.04,SSE,157,6.0,15.0,70,0.00,,,0.00,TxWx,2013-03-12 00:40:00,
2013-03-11 20:45:00,50.0,41.0,30.04,ESE,112,6.0,13.0,71,0.00,,,0.00,TxWx,2013-03-12 00:45:00,
2013-03-11 20:50:00,50.0,41.0,30.05,SE,135,10.0,14.0,72,0.00,,,0.00,TxWx,2013-03-12 00:50:00,
2013-03-11 20:56:00,50.0,41.0,30.04,SSE,157,18.0,18.0,73,0.00,,,0.00,TxWx,2013-03-12 00:56:00,
2013-03-11 21:01:00,50.0,42.0,30.04,ESE,112,12.0,20.0,73,0.00,,,0.00,TxWx,2013-03-12 01:01:00,
2013-03-11 21:06:00,50.0,42.0,30.04,SSE,157,10.0,10.0,74,0.00,,,0.00,TxWx,2013-03-12 01:06:00,
2013-03-11 21:11:00,50.0,42.0,30.04,ESE,112,10.0,10.0,75,0.00,,,0.00,TxWx,2013-03-12 01:11:00,
2013-03-11 21:16:00,50.0,43.0,30.05,ESE,112,16.0,16.0,76,0.00,,,0.00,TxWx,2013-03-12 01:16:00,
2013-03-11 21:21:00,49.0,42.0,30.05,South,180,11.0,11.0,76,0.00,,,0.00,TxWx,2013-03-12 01:21:00,
2013-03-11 21:26:00,49.0,42.0,30.05,South,180,8.0,11.0,77,0.00,,,0.00,TxWx,2013-03-12 01:26:00,
2013-03-11 21:35:00,49.0,42.0,30.04,SSE,157,5.0,8.0,78,0.00,,,0.00,TxWx,2013-03-12 01:35:00,
2013-03-11 21:40:00,49.0,43.0,30.04,SE,135,10.0,14.0,79,0.00,,,0.00,TxWx,2013-03-12 01:40:00,
2013-03-11 21:45:00,49.0,43.0,30.04,South,180,10.0,13.0,79,0.00,,,0.00,TxWx,2013-03-12 01:45:00,
2013-03-11 21:47:00,54.0,51.0,29.88,SE,135,20.0,20.0,89,0.00,,,0.00,TxWx,2013-03-12 01:47:00,
2013-03-11 21:48:00,54.0,51.0,29.88,SSE,157,12.0,13.0,89,0.00,,,0.00,TxWx,2013-03-12 01:48:00,
2013-03-11 21:49:00,54.0,51.0,29.88,ESE,112,16.0,16.0,89,0.00,,,0.00,TxWx,2013-03-12 01:49:00,
2013-03-11 21:50:00,49.0,43.0,30.05,SSE,157,14.0,15.0,80,0.00,,,0.00,TxWx,2013-03-12 01:50:00,
2013-03-11 21:55:00,49.0,43.0,30.04,SE,135,8.0,8.0,80,0.00,,,0.00,TxWx,2013-03-12 01:55:00,
2013-03-11 22:00:00,49.0,43.0,30.05,South,180,10.0,10.0,80,0.00,,,0.00,TxWx,2013-03-12 02:00:00,
2013-03-11 22:05:00,49.0,43.0,30.04,South,180,2.0,7.0,81,0.00,,,0.00,TxWx,2013-03-12 02:05:00,
2013-03-11 22:10:00,49.0,43.0,30.05,SE,135,9.0,13.0,81,0.00,,,0.00,TxWx,2013-03-12 02:10:00,
2013-03-11 22:15:00,49.0,43.0,30.05,ESE,112,10.0,10.0,81,0.00,,,0.00,TxWx,2013-03-12 02:15:00,
2013-03-11 22:17:00,54.0,51.0,29.87,SE,135,11.0,18.0,90,0.00,,,0.00,TxWx,2013-03-12 02:17:00,
2013-03-11 22:20:00,49.0,44.0,30.04,SSE,157,5.0,5.0,82,0.00,,,0.00,TxWx,2013-03-12 02:20:00,
2013-03-11 22:25:00,49.0,44.0,30.04,SE,135,8.0,9.0,82,0.00,,,0.00,TxWx,2013-03-12 02:25:00,
2013-03-11 22:30:00,49.0,44.0,30.04,ESE,112,14.0,19.0,82,0.00,,,0.00,TxWx,2013-03-12 02:30:00,
2013-03-11 22:31:00,54.0,51.0,29.87,SSE,157,11.0,11.0,91,0.00,,,0.00,TxWx,2013-03-12 02:31:00,
2013-03-11 22:32:00,54.0,51.0,29.87,ESE,112,5.0,7.0,91,0.00,,,0.00,TxWx,2013-03-12 02:32:00,
2013-03-11 22:36:00,49.0,44.0,30.04,SSE,157,15.0,15.0,82,0.00,,,0.00,TxWx,2013-03-12 02:36:00,
2013-03-11 22:37:00,54.0,51.0,29.87,SSE,157,10.0,17.0,91,0.00,,,0.00,TxWx,2013-03-12 02:37:00,
2013-03-11 22:41:00,49.0,44.0,30.03,SE,135,10.0,17.0,82,0.00,,,0.00,TxWx,2013-03-12 02:41:00,
2013-03-11 22:42:00,54.0,52.0,29.87,SSW,202,5.0,15.0,92,0.00,,,0.00,TxWx,2013-03-12 02:42:00,
2013-03-11 22:46:00,49.0,44.0,30.03,SE,135,6.0,10.0,83,0.00,,,0.00,TxWx,2013-03-12 02:46:00,
2013-03-11 22:47:00,54.0,52.0,29.88,South,180,13.0,13.0,92,0.00,,,0.00,TxWx,2013-03-12 02:47:00,
2013-03-11 22:48:00,54.0,52.0,29.88,South,180,11.0,13.0,92,0.00,,,0.00,TxWx,2013-03-12 02:48:00,
2013-03-11 22:49:00,54.0,52.0,29.88,SSE,157,6.0,8.0,92,0.00,,,0.00,TxWx,2013-03-12 02:49:00,
2013-03-11 22:51:00,49.0,44.0,30.03,ESE,112,11.0,12.0,83,0.00,,,0.00,TxWx,2013-03-12 02:51:00,
2013-03-11 22:52:00,54.0,52.0,29.87,ESE,112,3.0,6.0,92,0.00,,,0.00,TxWx,2013-03-12 02:52:00,
2013-03-11 22:53:00,54.0,52.0,29.88,SSE,157,5.0,6.0,92,0.00,,,0.00,TxWx,2013-03-12 02:53:00,
2013-03-11 22:54:00,54.0,52.0,29.88,ESE,112,12.0,16.0,92,0.00,,,0.00,TxWx,2013-03-12 02:54:00,
2013-03-11 22:56:00,49.0,44.0,30.02,ESE,112,17.0,18.0,83,0.00,,,0.00,TxWx,2013-03-12 02:56:00,
2013-03-11 23:01:00,49.0,44.0,30.02,ESE,112,10.0,10.0,83,0.00,,,0.00,TxWx,2013-03-12 03:01:00,
2013-03-11 23:06:00,49.0,44.0,30.02,SSE,157,8.0,9.0,83,0.00,,,0.00,TxWx,2013-03-12 03:06:00,
2013-03-11 23:11:00,49.0,44.0,30.01,SE,135,6.0,15.0,83,0.00,,,0.00,TxWx,2013-03-12 03:11:00,
2013-03-11 23:12:00,54.0,52.0,29.87,SE,135,6.0,10.0,92,0.00,,,0.00,TxWx,2013-03-12 03:12:00,
2013-03-11 23:13:00,54.0,52.0,29.87,SSE,157,3.0,10.0,92,0.00,,,0.00,TxWx,2013-03-12 03:13:00,
2013-03-11 23:14:00,54.0,52.0,29.87,ESE,112,9.0,10.0,92,0.00,,,0.00,TxWx,2013-03-12 03:14:00,
2013-03-11 23:15:00,54.0,52.0,29.86,ESE,112,11.0,11.0,92,0.00,,,0.00,TxWx,2013-03-12 03:15:00,
2013-03-11 23:16:00,49.0,44.0,30.00,SE,135,18.0,18.0,84,0.00,,,0.00,TxWx,2013-03-12 03:16:00,
2013-03-11 23:21:00,49.0,44.0,30.00,ESE,112,8.0,13.0,84,0.00,,,0.00,TxWx,2013-03-12 03:21:00,
2013-03-11 23:26:00,49.0,44.0,30.00,SE,135,8.0,10.0,84,0.00,,,0.00,TxWx,2013-03-12 03:26:00,
2013-03-11 23:27:00,54.0,52.0,29.87,SSE,157,5.0,9.0,93,0.00,,,0.00,TxWx,2013-03-12 03:27:00,
2013-03-11 23:28:00,54.0,52.0,29.87,ESE,112,7.0,11.0,93,0.00,,,0.00,TxWx,2013-03-12 03:28:00,
2013-03-11 23:29:00,54.0,52.0,29.87,SE,135,9.0,15.0,94,0.00,,,0.00,TxWx,2013-03-12 03:29:00,
2013-03-11 23:30:00,54.0,52.0,29.87,SE,135,11.0,15.0,94,0.00,,,0.00,TxWx,2013-03-12 03:30:00,
2013-03-11 23:31:00,49.0,44.0,30.00,SE,135,14.0,14.0,84,0.00,,,0.00,TxWx,2013-03-12 03:31:00,
2013-03-11 23:37:00,49.0,44.0,30.00,SE,135,8.0,13.0,84,0.00,,,0.00,TxWx,2013-03-12 03:37:00,
2013-03-11 23:42:00,49.0,44.0,29.99,SSE,157,12.0,18.0,84,0.00,,,0.00,TxWx,2013-03-12 03:42:00,
2013-03-11 23:47:00,49.0,44.0,29.99,ESE,112,6.0,9.0,84,0.00,,,0.00,TxWx,2013-03-12 03:47:00,
2013-03-11 23:52:00,50.0,45.0,29.99,South,180,9.0,11.0,84,0.00,,,0.00,TxWx,2013-03-12 03:52:00,